User: anonymous   Login
Location: Columbia
(38.9520°N, 92.3340°W)
Time: 16:25:21
(UTC-05:00)
Language:

Meteor 1-4 Rocket - Orbit

View from above orbital plane
View from above orbital plane
View from above satellite
View from above satellite

Ground track
Ground track

The orbit data is extracted from the following two-line orbital elements,

1 04394U 70037B   15181.17548457  .00002038  00000-0  78753-4 0  9991
2 04394 081.2441 136.0974 0045397 052.0603 308.4719 15.24757651455218
Epoch (UTC): 30 June 2015 04:12:41
Eccentricity: 0.0045397
inclination: 81.2441°
perigee height: 460 km
apogee height: 523 km
right ascension of ascending node: 136.0974°
argument of perigee: 52.0603°
revolutions per day: 15.24757651
mean anomaly at epoch: 308.4719°
orbit number at epoch: 45521

The dashed part of the orbit path shows where the satellite is in the earth's shadow,  

DLR